Regional Weather Roundup
Issued by NWS Wakefield, VA

Home | Current Version | Previous Version | Text Only | Print | Product List | Glossary On
Versions: 1 2 3 4 5 6 7 8 9 10 11 12 13 14 15 16 17 18 19 20 21 22 23 24 25 26 27 28 29 30 31 32 33 34 35 36 37 38 39 40 41 42 43 44 45 46 47 48 49 50
680
ASUS41 KAKQ 040215
RWRAKQ

REGIONAL WEATHER ROUNDUP
NATIONAL WEATHER SERVICE WAKEFIELD VA
900 PM EST SAT DEC 03 2016

Note: "fair" indicates few or no clouds below 12,000 feet with no
significant weather and/or obstructions to visibility. * = Denotes
station may not report precipitation (e.g., rain,snow,etc.),
thunder or fog.

VAZ042-051-052>054-056-040300-
NORTHERN VIRGINIA

CITY           SKY/WX    TMP DP  RH WIND       PRES   REMARKS
WASH NATIONAL  CLOUDY    43  29  57 NW15      30.26S
DULLES         CLOUDY    40  27  59 W9        30.27R
FORT BELVOIR   CLOUDY    42  28  57 NW7       30.27R
QUANTICO       PTCLDY    42  27  55 N12       30.29R
FREDERICKSBRG* PTCLDY    41  30  65 N8        30.28R
STAFFORD*      PTCLDY    39  29  66 N8        30.32S
WARRENTON      PTCLDY    40  24  52 N5        30.28R
CULPEPER*      CLOUDY    37  29  71 CALM      30.29R
MANASSAS*      MOCLDY    41  28  60 NW8       30.28S
LEESBURG*      CLOUDY    41  32  70 NW10      30.28S
WINCHESTER     CLOUDY    36  27  69 NW12G20   30.28R
FRONT ROYAL*   CLOUDY    37  28  70 N5        30.28R
LURAY*         FAIR      36  32  87 N5        30.27R
$$

VAZ048-049-060>072-079>083-040300-
CENTRAL AND SOUTH CENTRAL VIRGINIA

CITY           SKY/WX    TMP DP  RH WIND       PRES   REMARKS
RICHMOND       NOT AVBL
CHESTERFIELD*  FAIR      43  19  39 N5        30.28R
PETERSBURG*    PTCLDY    34  32  92 CALM      30.26R
HANOVER        PTCLDY    41  27  57 VRB6      30.29R
TAPPAHANNOCK*  PTCLDY    42  25  50 NW5       30.28R
QUINTON*       FAIR      43  31  62 N5        30.26R
CHARLOTTSVILLE PTCLDY    40  28  62 NE5       30.25R
GORDONSVILLE*  FAIR      37  29  73 CALM      30.26R
ORANGE*          N/A     36  30  80 CALM      30.28S
LOUISA*        PTCLDY    43  32  65 NE6       30.25R
BUMPASS*       FAIR      40  29  64 NE3       30.27R
FARMVILLE*     CLOUDY    37  34  88 CALM      30.25R
CREWE*         FAIR      37  32  82 CALM      30.25R
FORT PICKETT*  FAIR      38  28  68 CALM      30.25R
CHASE CITY*    FAIR      38  32  80 CALM      30.26R
CLARKSVILLE*   FAIR      37  32  81 CALM      30.26R
SOUTH HILL*    PTCLDY    38  33  84 CALM      30.31R
LAWRENCEVILLE* FAIR      40  32  74 CALM      30.25R
EMPORIA*       CLOUDY    37  32  81 CALM      30.28R
$$

VAZ088>098-040300-
SOUTHEAST VIRGINIA

CITY           SKY/WX    TMP DP  RH WIND       PRES   REMARKS
NORFOLK        PTCLDY    48  33  56 N12       30.23S
VIRGINIA BEACH CLOUDY    46  32  58 N9        30.22S
NORFOLK NAVAL  CLOUDY    47  33  58 N12       30.25S
WEST POINT*    CLOUDY    42  30  61 N5        30.28R
SALUDA*        FAIR      44  32  63 NW8       30.25S
NEWPORT NEWS   CLOUDY    42  32  67 N5        30.25R
LANGLEY AFB    PTCLDY    45  32  61 N10       30.24R
FORT EUSTIS    CLOUDY    42  31  64 NE5       30.23R
WILLIAMSBURG*  CLOUDY    43  36  75 CALM      30.26R
HR EXEC AP*    FAIR      36  30  80 CALM      30.23R
FRANKLIN*      CLOUDY    40  33  74 CALM      30.26R
US460-WAKEFLD  CLOUDY    39  34  82 CALM      30.25R
$$

VAZ020-022-025-037-045-040300-
WEST CENTRAL AND SOUTHWEST VIRGINIA

CITY           SKY/WX    TMP DP  RH WIND       PRES   REMARKS
STAUNTON*      PTCLDY    35  27  73 N6        30.28R
WAYNESBORO*    FAIR      35  26  70 N3        30.25R
HOT SPRINGS VA CLOUDY    27  27 100 NW16      30.15S WCI  14
LYNCHBURG      PTCLDY    41  28  60 CALM      30.25R
DANVILLE       CLOUDY    42  30  62 W3        30.27R
SOUTH BOSTON*  FAIR      38  32  78 CALM      30.26R
MARTINSVILLE   PTCLDY    37  29  74 CALM      30.29R
ROANOKE        MOCLDY    39  27  62 NW6       30.28R
BLACKSBURG     PTCLDY    35  27  74 W3        30.27S
DUBLIN*        PTCLDY    36  28  74 CALM      30.26S
MARION*        CLOUDY    35  29  80 CALM      30.25F
HILLSVILLE*    CLOUDY    33  29  84 CALM      30.21S
RICHLANDS*     FAIR      32  27  82 E5        30.24S
WISE*          CLOUDY    34  28  80 CALM      30.24S
ABINGDON*      PTCLDY    38  30  71 CALM      30.24S
$$

MDZ021>025-VAZ099-100-040300-
SOUTHERN MARYLAND AND THE DELMARVA PENINSULA

CITY           SKY/WX    TMP DP  RH WIND       PRES   REMARKS
PATUXENT RIVER PTCLDY    42  28  57 W12       30.25R
BAY BRIDGE APT PTCLDY    43  32  65 W10       30.23S
LEONARDTOWN    CLOUDY    41  28  60 W6        30.27R
DOVER          CLOUDY    45  33  63 W9        30.18S
GEORGETOWN     PTCLDY    43  31  62 W6        30.21S
EASTON         PTCLDY    43  30  61 MISG      30.26S
CAMBRIDGE      CLOUDY    43  32  65 W5        30.23R
SALISBURY      PTCLDY    42  31  64 W7        30.22R
OCEAN CITY     MOCLDY    42  30  62 W6        30.21S
WALLOPS ISLAND CLOUDY    42  33  70 W7        30.24R
ACCOMACK*      PTCLDY    45  33  63 N5        30.24R
$$

NCZ012>017-030>032-040300-
NORTH CENTRAL AND EASTERN NORTH CAROLINA

CITY           SKY/WX    TMP DP  RH WIND       PRES   REMARKS
ROANOKE RAPIDS FAIR      39  34  81 CALM      30.26R
RALEIGH        CLOUDY    46  30  53 CALM      30.27R
ELIZABETH CITY PTCLDY    42  32  67 W6        30.25R
AHOSKIE*       CLOUDY    38  34  84 CALM      30.26R
EDENTON*       PTCLDY    44  35  70 CALM      30.25S
CURRITUCK*     PTCLDY    42  33  70 CALM      30.24R
KILL DEVIL HLS PTCLDY    46  38  71 NW3       30.22R
MANTEO         PTCLDY    47  34  60 N5        30.24R
CAPE HATTERAS  PTCLDY    50  34  54 VRB5      30.23R
TARBORO*       NOT AVBL
GOLDSBORO      CLOUDY    44  38  78 CALM      30.24S
WASHINGTON     MOCLDY    41  35  77 CALM      30.26S
GREENVILLE     PTCLDY    41  37  87 CALM      30.26S
NEW BERN       CLOUDY    43  37  79 CALM      30.26R
WILMINGTON     PTCLDY    44  38  79 CALM      30.26R
$$

VAZ048-040300-
ELSEWHERE

CITY           SKY/WX    TMP DP  RH WIND       PRES   REMARKS
HARRISBURG PA  MOCLDY    45  30  55 NW12      30.19S
BALTIMORE      MOCLDY    41  30  65 W12       30.23S
ANNAPOLIS      PTCLDY    44  30  57 NW8       30.24S
ANDREWS AFB    CLOUDY    41  28  60 NW13      30.23S
PHILADELPHIA   CLOUDY    47  30  51 W8        30.18S
HENDERSON NC   CLOUDY    40  28  62 CALM      30.26R
GREENSBORO     CLOUDY    44  29  55 N3        30.26R
ROCKY MOUNT    CLOUDY    41  37  86 CALM      30.26S
$$

VAZ100-040300-
MARINE

STATION/POSITION TIME  TEMP    WIND        PRES    WAVE   SWELL
                       AIR SEA DIR/SP/G            HT/PER HT/PER
                 (UTC) (F)     (DEG/KT/KT) (MB)    (FT/S) (FT/S)
BRANDYWINE LGT   0148   46     310/ 15/ 18   N/A
CAPE MAY NJ      0148   46 47  310/ 14/ 18 1021.7R
LEWES DE         0148   46 49  290/ 12/ 14 1022.3S
OCEAN-CITY-INLET 0148   44 50  310/  7/ 11 1023.3R
WACHAPREAGUE VA  0148   44 49  320/  3/  5 1023.8R
THOMAS POINT MD  0200   43 49  280/ 13/ 15   N/A
GOOSES REEF MD   0150   44     300/ 14/ 17 1024.7R
COVE POINT MD    0148   42     320/  9/ 15 1024.7R
SOLOMONS ISLAND  0148   43 51  300/  7/ 11   N/A
BISHOPS HEAD MD  0148   44 46  310/ 11/ 12 1024.3R
PINEY POINT MD   0148          350/ 19/ 21   N/A
POTOMAC MD       0150   45     330/ 16/ 19 1023.8R
CAMBRIDGE MD     0148   45 48  290/  8/ 15 1023.1R
LEWISETTA VA     0148   45 50  330/ 10/ 13 1024.3R
RAPPAHANNOCK LGT 0148          340/ 19/ 21 1024.4R
STINGRAY PT      0150   46     360/ 14/ 17 1024.5R
YORK RVR RNG VA  0148   47      10/ 15/ 16 1023.6R
YORKTOWN VA      0148   46 52  350/  6/  7 1024.0R
JAMESTOWN VA     0150   45     360/  2/  4   N/A
DOMINION TERM VA 0148   47      50/  2/  4 1024.0R
KIPTOPEKE VA     0148      51   10/  8/ 10   N/A
CHES BAY BRIDGE  0148   49 53  360/ 16/ 19 1023.6R
CAPE HENRY VA    0148   48     340/ 18/ 21   N/A
WILLOUBY STN VA  0148   47     360/  9/ 11 1024.8R
S CRANEY ISL VA  0148   49     360/ 11/ 13 1023.5R
CAPE HENRY BUOY  0142      56                N/A     3/ 4
1ST LANDING BUOY 0150   49                 1023.6F
CAPE CHARLES BUO 0156      56                N/A     2/ 3
OFFSHORE WE BUOY 0151      56                N/A     4/ 6
64NM E OF VA BCH 0150   51 60  340/ 21/ 25 1022.0F   7/ 6
DUCK PIER NC     0148   48 56  310/  9/ 11 1023.1R
44100 DUCK FRF   0105      57                N/A     4/ 5
OREGON INLET NC  0148          320/  7/ 10   N/A
HATTERAS NC      0148   51 58  340/ 10/ 11 1023.3R
DIAMOND SHLS NC  0150   60 74  360/ 14/ 19 1023.4R   5/ 8   3/ 8
CAPE LOOKOUT NC  0200   50     340/  7/  8 1023.9R
$$




USA.gov is the U.S. government's official web portal to all federal, state and local government web resources and services.